DW7013 Weather Reports


Display with metric or nautical units.
time (UTC)temp
F
wind
direction
speed
MPH
gust
MPH
rain 1hr
in
rain 24hr
in
rain mn
in
humidity
%
barometer
mb
20260905204729 56 55 0.0 0.0 0.00 0.06 0.06 79 1027.7
20260905204212 56 55 0.0 0.0 0.00 0.06 0.06 78 1027.7
20260905203718 56 55 0.0 0.0 0.00 0.06 0.06 78 1027.7
20260905203216 57 55 0.0 0.0 0.00 0.06 0.06 78 1027.7
20260905202724 57 55 0.0 0.0 0.00 0.06 0.06 78 1027.7
20260905202224 57 33 0.0 0.0 0.00 0.06 0.06 77 1027.6
20260905201708 57 33 0.0 0.0 0.00 0.06 0.06 77 1027.5
20260905201221 57 32 0.0 0.0 0.00 0.06 0.06 77 1027.4
20260905200722 58 33 0.0 0.0 0.00 0.06 0.06 77 1027.4
20260905200227 58 33 0.0 0.0 0.00 0.06 0.06 76 1027.4
20260905195718 58 33 0.0 0.0 0.00 0.06 0.06 76 1027.4
20260905195223 58 27 0.0 0.0 0.00 0.06 0.06 76 1027.4
20260905194714 58 27 0.0 0.0 0.00 0.06 0.06 75 1027.4
20260905194219 58 27 0.0 0.0 0.00 0.06 0.06 75 1027.3
20260905193227 59 27 0.0 0.0 0.00 0.06 0.06 74 1027.1
20260905192717 59 27 0.0 0.0 0.00 0.06 0.06 74 1027.0
20260905192216 60 27 0.0 0.0 0.00 0.06 0.06 73 1027.0
20260905191223 60 27 0.0 0.0 0.00 0.06 0.06 73 1027.1
20260905190717 60 0 0.0 0.0 0.00 0.06 0.06 73 1027.0
20260905190224 60 0 0.0 0.0 0.00 0.06 0.06 72 1026.8
20260905185215 61 0 0.0 0.0 0.00 0.06 0.06 71 1026.8
20260905184720 61 0 0.0 0.0 0.00 0.06 0.06 71 1026.8
20260905183214 62 0 0.0 4.0 0.00 0.06 0.06 70 1026.6
20260905182718 62 312 0.0 4.0 0.00 0.06 0.06 70 1026.5
20260905182218 62 317 1.0 4.0 0.00 0.06 0.06 70 1026.4
20260905181223 62 342 0.0 0.0 0.00 0.06 0.06 69 1026.3
20260905180727 62 331 0.0 0.0 0.00 0.06 0.06 69 1026.3
20260905180218 63 331 0.0 0.0 0.00 0.06 0.06 69 1026.3
20260905175716 63 17 0.0 0.0 0.00 0.06 0.06 68 1026.3
20260905174234 64 5 0.0 0.0 0.00 0.06 0.06 67 1026.3
20260905173720 64 5 0.0 0.0 0.00 0.06 0.06 67 1026.3
20260905173253 64 24 0.0 0.0 0.00 0.06 0.06 67 1026.3
20260905172723 65 25 0.0 0.0 0.00 0.06 0.06 64 1026.2
20260905171713 65 5 0.0 0.0 0.00 0.06 0.06 65 1026.1
20260905171240 65 355 0.0 0.0 0.00 0.06 0.06 65 1026.2
20260905170717 65 323 0.0 0.0 0.00 0.06 0.06 64 1026.1
20260905170211 66 326 0.0 0.0 0.00 0.06 0.06 64 1026.0
20260905165712 66 319 0.0 0.0 0.00 0.06 0.06 63 1026.0
20260905164725 67 308 1.0 6.0 0.00 0.06 0.06 62 1026.0
20260905164216 68 327 1.0 6.0 0.00 0.06 0.06 61 1026.0
20260905163734 69 340 0.0 3.0 0.00 0.06 0.06 60 1026.0
20260905163216 70 339 0.0 3.0 0.00 0.06 0.06 58 1026.0
20260905162710 70 330 0.0 0.0 0.00 0.06 0.06 59 1026.0
20260905161723 69 310 0.0 0.0 0.00 0.06 0.06 63 1025.9
20260905161221 69 320 0.0 0.0 0.00 0.06 0.06 65 1025.9
20260905160733 69 323 0.0 0.0 0.00 0.06 0.06 66 1025.9
20260905160232 69 254 0.0 0.0 0.00 0.06 0.06 69 1025.9
20260905155732 69 273 0.0 5.0 0.00 0.06 0.06 68 1025.9
20260905155223 69 190 0.0 6.0 0.00 0.06 0.06 72 1025.9
20260905154717 69 202 1.0 6.0 0.00 0.06 0.06 71 1025.9
20260905154212 70 180 1.0 6.0 0.00 0.06 0.06 70 1025.8
20260905153717 70 174 1.0 5.0 0.00 0.06 0.06 70 1025.9
20260905153215 69 192 1.0 4.0 0.00 0.06 0.06 70 1026.0
20260905152728 69 175 0.0 0.0 0.00 0.06 0.06 69 1026.0
20260905152225 69 175 0.0 0.0 0.00 0.06 0.06 69 1026.0
20260905151717 70 189 0.0 4.0 0.00 0.06 0.06 68 1026.0
20260905151219 70 169 0.0 6.0 0.00 0.06 0.06 70 1026.0
20260905150714 69 185 1.0 6.0 0.00 0.06 0.06 69 1025.9
20260905145731 69 213 3.0 8.0 0.00 0.06 0.06 71 1026.0
20260905145223 69 167 4.0 8.0 0.00 0.06 0.06 72 1026.0
20260905144722 68 169 4.0 8.0 0.00 0.06 0.06 72 1026.0
20260905144229 68 163 2.0 6.0 0.00 0.06 0.06 74 1026.0
20260905143716 68 200 2.0 6.0 0.00 0.06 0.06 73 1026.1
20260905143221 68 174 2.0 6.0 0.00 0.06 0.06 72 1026.1
20260905142230 68 145 1.0 6.0 0.00 0.06 0.06 72 1026.1
20260905141717 67 180 1.0 6.0 0.00 0.06 0.06 73 1026.2
20260905141221 67 178 2.0 6.0 0.00 0.06 0.06 74 1026.2
20260905140226 67 176 3.0 6.0 0.00 0.06 0.06 74 1026.3
20260905135726 67 178 2.0 6.0 0.00 0.06 0.06 73 1026.3
20260905135225 66 176 1.0 7.0 0.00 0.06 0.06 74 1026.3
20260905134748 66 184 1.0 7.0 0.00 0.06 0.06 75 1026.3
20260905134224 65 194 2.0 6.0 0.00 0.06 0.06 74 1026.4
20260905133220 64 167 1.0 7.0 0.00 0.06 0.06 74 1026.3
20260905132221 65 160 4.0 8.0 0.00 0.06 0.06 72 1026.3
20260905131718 65 159 2.0 7.0 0.00 0.06 0.06 72 1026.2
20260905131247 65 172 0.0 0.0 0.00 0.06 0.06 73 1026.3
20260905130706 64 163 0.0 6.0 0.00 0.06 0.06 76 1026.3
20260905130217 63 153 1.0 6.0 0.00 0.06 0.06 76 1026.2
20260905125730 63 173 2.0 7.0 0.00 0.06 0.06 76 1026.2
20260905125215 63 171 2.0 7.0 0.00 0.06 0.06 76 1026.1
20260905124721 63 165 2.0 8.0 0.00 0.06 0.06 76 1026.1
20260905123711 63 173 2.0 8.0 0.00 0.06 0.06 78 1026.1
20260905123209 63 131 3.0 8.0 0.00 0.06 0.06 79 1026.2
20260905122715 64 156 3.0 8.0 0.00 0.06 0.06 78 1026.1
20260905121720 64 155 2.0 7.0 0.00 0.06 0.06 76 1026.0
20260905120226 65 141 0.0 8.0 0.01 0.06 0.06 73 1025.9
20260905115730 65 150 2.0 8.0 0.01 0.06 0.06 73 1025.9
20260905115231 65 328 4.0 9.0 0.01 0.06 0.06 72 1026.0
20260905114709 65 355 5.0 9.0 0.01 0.06 0.06 72 1026.1
20260905114216 65 311 4.0 9.0 0.01 0.06 0.06 72 1026.0
20260905113722 65 332 3.0 7.0 0.01 0.06 0.06 71 1025.9
20260905113211 65 258 3.0 10.0 0.01 0.06 0.06 72 1025.9
20260905112725 65 265 3.0 10.0 0.01 0.06 0.06 71 1026.0
20260905112220 65 295 4.0 10.0 0.01 0.06 0.06 70 1026.0
20260905111716 65 231 4.0 10.0 0.01 0.06 0.06 69 1026.0
20260905111229 65 293 3.0 10.0 0.01 0.06 0.06 70 1025.9
20260905110715 65 328 3.0 6.0 0.00 0.05 0.05 72 1025.9
20260905110221 65 242 3.0 6.0 0.00 0.05 0.05 74 1025.8
20260905105729 65 282 2.0 9.0 0.00 0.05 0.05 74 1025.8
20260905105226 65 290 2.0 11.0 0.00 0.05 0.05 74 1025.7
20260905104212 66 339 4.0 11.0 0.00 0.05 0.05 76 1025.5
20260905103706 66 323 3.0 9.0 0.00 0.05 0.05 75 1025.7
20260905103222 66 346 2.0 9.0 0.00 0.05 0.05 74 1025.7
20260905102723 66 347 3.0 9.0 0.00 0.05 0.05 73 1025.7
20260905102230 66 255 2.0 9.0 0.00 0.05 0.05 72 1025.7
20260905101720 67 26 1.0 9.0 0.00 0.05 0.05 70 1025.5
20260905100226 66 209 0.0 0.0 0.00 0.05 0.05 74 1025.3
20260905095716 65 336 0.0 0.0 0.00 0.05 0.05 75 1025.3
20260905095210 65 151 0.0 0.0 0.00 0.05 0.05 73 1025.3
20260905094722 64 0 0.0 0.0 0.00 0.05 0.05 76 1025.3
20260905094218 64 267 0.0 0.0 0.00 0.05 0.05 78 1025.3
20260905093726 64 263 0.0 0.0 0.00 0.05 0.05 81 1025.2
20260905093228 63 97 0.0 0.0 0.00 0.05 0.05 78 1025.3
20260905092716 63 327 0.0 0.0 0.00 0.05 0.05 80 1025.3
20260905092216 63 327 0.0 3.0 0.00 0.05 0.05 79 1025.3
20260905091223 62 211 0.0 3.0 0.00 0.05 0.05 77 1025.2
20260905090715 62 278 0.0 0.0 0.00 0.05 0.05 83 1025.2
20260905090234 62 88 0.0 7.0 0.00 0.05 0.05 85 1025.1
20260905085217 62 26 1.0 5.0 0.00 0.05 0.05 87 1025.0
20260905084711 62 331 0.0 4.0 0.00 0.05 0.05 90 1025.0
20260905084215 62 229 0.0 0.0 0.00 0.05 0.05 91 1025.0
20260905083715 62 229 0.0 0.0 0.01 0.05 0.05 91 1024.8
20260905083228 62 229 0.0 0.0 0.02 0.05 0.05 92 1024.8
20260905082711 62 229 0.0 0.0 0.03 0.05 0.05 91 1024.7
20260905082213 62 229 0.0 0.0 0.04 0.05 0.05 91 1024.7
20260905081715 61 229 0.0 0.0 0.04 0.05 0.05 91 1024.6
20260905080720 61 234 0.0 0.0 0.04 0.05 0.05 91 1024.6
20260905080229 61 234 0.0 0.0 0.04 0.05 0.05 91 1024.5
20260905075740 61 234 0.0 0.0 0.04 0.05 0.05 91 1024.4
20260905074213 61 269 0.0 0.0 0.03 0.04 0.04 90 1024.4
20260905073219 61 269 0.0 0.0 0.02 0.02 0.02 89 1024.3
20260905072718 61 215 0.0 0.0 0.00 0.01 0.01 89 1024.1
20260905072218 61 202 0.0 0.0 0.00 0.01 0.01 88 1024.1
20260905071216 61 178 0.0 0.0 0.00 0.01 0.01 89 1024.0
20260905065716 61 178 0.0 0.0 0.00 0.01 0.01 88 1023.8
20260905065228 61 178 0.0 0.0 0.00 0.01 0.01 89 1023.8
20260905064218 61 178 0.0 0.0 0.00 0.01 0.01 89 1023.8
20260905062712 61 178 0.0 0.0 0.00 0.01 0.01 89 1023.6
20260905062217 61 179 0.0 0.0 0.00 0.01 0.01 89 1023.6
20260905061717 61 178 0.0 0.0 0.00 0.01 0.01 89 1023.5
20260905061225 61 178 0.0 0.0 0.00 0.01 0.01 90 1023.4
20260905060724 61 178 0.0 0.0 0.00 0.01 0.01 89 1023.4
20260905060227 61 138 0.0 0.0 0.00 0.01 0.01 89 1023.3
20260905055732 61 138 0.0 0.0 0.00 0.01 0.01 89 1023.3
20260905055213 61 138 0.0 0.0 0.00 0.01 0.01 89 1023.3
20260905054727 61 138 0.0 0.0 0.00 0.01 0.01 90 1023.3
20260905054218 61 138 0.0 0.0 0.00 0.01 0.01 89 1023.2
20260905053732 61 149 0.0 0.0 0.00 0.01 0.01 89 1023.1
20260905052749 61 167 0.0 0.0 0.00 0.01 0.01 89 1023.1
20260905052209 61 167 0.0 0.0 0.00 0.01 0.01 89 1023.1
20260905051716 61 167 0.0 0.0 0.00 0.01 0.01 89 1022.8
20260905051215 61 167 0.0 0.0 0.00 0.01 0.01 89 1023.1
20260905050723 62 167 0.0 0.0 0.01 0.01 0.01 89 1023.0
20260905050222 62 162 0.0 0.0 0.01 0.01 0.01 88 1022.8
20260905045734 62 162 0.0 0.0 0.01 0.01 0.01 88 1022.6
20260905045216 62 162 0.0 0.0 0.01 0.01 0.01 87 1022.4
20260905043724 62 106 0.0 0.0 0.01 0.01 0.01 86 1022.1
20260905042726 62 107 0.0 0.0 0.01 0.01 0.01 86 1022.1
20260905042227 62 107 0.0 0.0 0.01 0.01 0.01 85 1022.1
20260905041216 62 107 0.0 0.0 0.00 0.00 0.00 83 1022.1
20260905040714 62 107 0.0 0.0 0.00 0.00 0.00 83 1022.2
20260905040211 62 107 0.0 0.0 0.00 0.00 0.00 82 1022.3
20260905035231 62 107 0.0 0.0 0.00 0.00 0.00 81 1022.1
20260905034730 62 42 0.0 0.0 0.00 0.00 0.00 81 1022.2
20260905033721 62 33 0.0 0.0 0.00 0.00 0.00 80 1022.1
20260905033208 62 33 0.0 0.0 0.00 0.00 0.00 80 1022.1
20260905032715 62 33 0.0 0.0 0.00 0.00 0.00 80 1022.1
20260905032211 62 33 0.0 0.0 0.00 0.00 0.00 80 1022.0
20260905031719 62 33 0.0 0.0 0.00 0.00 0.00 79 1022.0
20260905031214 63 33 0.0 0.0 0.00 0.00 0.00 79 1022.0
20260905030241 63 32 0.0 0.0 0.00 0.00 0.00 79 1021.9
20260905025723 63 21 0.0 0.0 0.00 0.00 0.00 78 1021.9
20260905024725 63 21 0.0 0.0 0.00 0.00 0.00 77 1021.8
20260905024211 64 5 0.0 0.0 0.00 0.00 0.00 77 1021.5
20260905023723 64 5 0.0 0.0 0.00 0.00 0.00 77 1021.7
20260905023227 64 0 0.0 0.0 0.00 0.00 0.00 76 1021.8
20260905022720 64 351 0.0 0.0 0.00 0.00 0.00 76 1021.7
20260905022220 64 351 0.0 0.0 0.00 0.00 0.00 76 1021.7
20260905021250 64 351 0.0 0.0 0.00 0.00 0.00 76 1021.8
20260905020719 64 5 0.0 0.0 0.00 0.00 0.00 76 1021.7
20260905020213 65 5 0.0 0.0 0.00 0.00 0.00 75 1021.7
20260905015721 65 5 0.0 0.0 0.00 0.00 0.00 75 1021.8
20260905014721 65 24 0.0 6.0 0.00 0.00 0.00 74 1021.7
20260905014229 65 355 1.0 6.0 0.00 0.00 0.00 74 1021.7
20260905013715 65 302 1.0 7.0 0.00 0.00 0.00 74 1021.7
20260905013211 65 0 1.0 7.0 0.00 0.00 0.00 73 1021.7
20260905012232 65 322 0.0 3.0 0.00 0.00 0.00 71 1021.7
20260905011726 65 336 0.0 2.0 0.00 0.00 0.00 70 1021.5
20260905011215 65 336 0.0 0.0 0.00 0.00 0.00 70 1021.4
20260905010731 66 5 0.0 3.0 0.00 0.00 0.00 69 1021.3
20260905010217 66 17 0.0 3.0 0.00 0.00 0.00 68 1021.3
20260905005707 66 355 0.0 5.0 0.00 0.00 0.00 68 1021.4
20260905004711 66 355 1.0 8.0 0.00 0.00 0.00 67 1021.3
20260905003729 67 5 5.0 10.0 0.00 0.00 0.00 66 1021.4
20260905003216 67 323 4.0 10.0 0.00 0.00 0.00 66 1021.3
20260905002709 67 336 1.0 8.0 0.00 0.00 0.00 66 1021.2
20260905002220 67 337 0.0 11.0 0.00 0.00 0.00 65 1021.1
20260905001718 68 324 1.0 12.0 0.00 0.00 0.00 65 1021.1
20260905001231 68 324 4.0 12.0 0.00 0.00 0.00 65 1021.1
20260904235721 68 350 4.0 11.0 0.00 0.00 0.00 64 1021.1
20260904235227 68 333 2.0 8.0 0.00 0.00 0.00 64 1021.1
20260904234714 68 322 2.0 8.0 0.00 0.00 0.00 63 1021.0
20260904234232 68 333 1.0 5.0 0.00 0.00 0.00 62 1021.0
20260904233728 69 5 1.0 5.0 0.00 0.00 0.00 62 1021.0
20260904233225 69 324 0.0 5.0 0.00 0.00 0.00 61 1021.0
20260904232217 70 348 1.0 6.0 0.00 0.00 0.00 59 1020.9
20260904231721 71 336 1.0 9.0 0.00 0.00 0.00 58 1021.0
20260904231228 71 349 2.0 9.0 0.00 0.00 0.00 57 1021.0
20260904230722 72 351 3.0 9.0 0.00 0.00 0.00 56 1020.9
20260904230246 72 5 3.0 11.0 0.00 0.00 0.00 55 1020.9
20260904225727 72 347 4.0 11.0 0.00 0.00 0.00 56 1020.9
20260904225222 72 340 4.0 7.0 0.00 0.00 0.00 55 1020.8
20260904224717 72 13 3.0 9.0 0.00 0.00 0.00 56 1020.8
20260904224215 71 335 4.0 9.0 0.00 0.00 0.00 56 1020.7
20260904223712 71 324 3.0 8.0 0.00 0.00 0.00 57 1020.6
20260904222725 70 9 2.0 8.0 0.00 0.00 0.00 59 1020.6
20260904221724 69 342 0.0 4.0 0.00 0.00 0.00 62 1020.5
20260904220713 69 31 0.0 0.0 0.00 0.00 0.00 63 1020.5
20260904220225 69 87 0.0 0.0 0.00 0.00 0.00 63 1020.5
20260904215713 69 307 0.0 0.0 0.00 0.00 0.00 63 1020.5
20260904215227 69 344 0.0 0.0 0.00 0.00 0.00 63 1020.5
20260904213718 69 325 0.0 4.0 0.00 0.00 0.00 63 1020.4
20260904213217 69 311 0.0 4.0 0.00 0.00 0.00 63 1020.4
20260904212712 69 84 0.0 0.0 0.00 0.00 0.00 63 1020.4
20260904212255 69 355 0.0 0.0 0.00 0.00 0.00 64 1020.4
20260904211220 69 13 0.0 0.0 0.00 0.00 0.00 63 1020.4
20260904210726 69 355 0.0 0.0 0.00 0.00 0.00 63 1020.4
20260904210216 69 344 0.0 0.0 0.00 0.00 0.00 63 1020.4
20260904205718 70 19 0.0 0.0 0.00 0.00 0.00 63 1020.4